Location: Ferchesar
(52.6477°N, 12.4298°E)
Time: 04:25:23
(UTC+02:00)

Vanguard 3 - Pass Details

Date: 05 March 2021
Orbit: 508 x 3262 km, 33.3° (Epoch: 15 April)

Event Time Altitude Azimuth Distance (km) Brightness Sun altitude
Rises 13:26:54 0° 207° (SSW) 7,090 13.1 29.9°
Reaches altitude 10° 13:33:03 10° 195° (SSW) 6,183 13.3 29.6°
Maximum altitude 13:46:45 24° 151° (SSE) 4,865 11.8 28.8°
Drops below altitude 10° 13:58:33 10° 106° (ESE) 5,321 11.3 28.0°
Sets 14:03:13 0° 94° (E) 5,947 11.3 27.7°
